DW9396 Weather Reports


Display with metric or nautical units.
time (UTC)temp
F
wind
direction
speed
MPH
gust
MPH
rain 1hr
in
rain 24hr
in
rain mn
in
humidity
%
barometer
mb
20260905124510 50 150 0.0 2.0 0.00 0.02 0.00 79 1012.4
20260905123005 50 150 0.0 3.0 0.00 0.02 0.00 78 1012.5
20260905121502 50 150 0.0 1.0 0.00 0.02 0.00 77 1012.5
20260905114559 50 150 0.0 2.0 0.00 0.02 0.00 77 1012.6
20260905113058 50 150 0.0 2.0 0.00 0.02 0.00 77 1012.6
20260905111556 50 150 0.0 2.0 0.00 0.02 0.00 77 1012.7
20260905104557 49 152 0.0 3.0 0.00 0.02 0.00 77 1012.7
20260905103055 49 152 0.0 2.0 0.00 0.02 0.00 77 1012.7
20260905101605 49 150 0.0 3.0 0.00 0.02 0.00 76 1012.8
20260905094549 50 150 0.0 2.0 0.00 0.02 0.00 75 1012.7
20260905093048 50 149 0.0 2.0 0.00 0.02 0.00 75 1012.8
20260905091600 51 150 0.0 2.0 0.00 0.02 0.00 74 1012.6
20260905084544 51 150 0.0 2.0 0.00 0.02 0.00 74 1012.7
20260905083043 51 152 0.0 3.0 0.00 0.02 0.00 74 1012.7
20260905081541 52 153 0.0 3.0 0.00 0.02 0.00 73 1012.7
20260905074539 53 162 0.0 2.0 0.00 0.02 0.00 72 1012.7
20260905073036 52 152 0.0 2.0 0.00 0.02 0.00 73 1012.7
20260905071536 52 153 0.0 2.0 0.00 0.02 0.00 73 1012.6
20260905064529 54 153 0.0 1.0 0.00 0.02 0.02 70 1012.6
20260905063028 54 155 0.0 1.0 0.00 0.02 0.02 69 1012.6
20260905061530 54 155 0.0 0.0 0.00 0.02 0.02 69 1012.6
20260905054532 54 155 0.0 0.0 0.00 0.02 0.02 69 1012.7
20260905053025 55 155 0.0 0.0 0.00 0.02 0.02 67 1012.8
20260905051526 56 155 0.0 0.0 0.00 0.02 0.02 66 1012.8
20260905044523 56 155 0.0 0.0 0.00 0.02 0.02 65 1012.8
20260905043023 57 155 0.0 0.0 0.00 0.02 0.02 64 1012.7
20260905041520 57 155 0.0 1.0 0.00 0.02 0.02 63 1012.5
20260905034527 58 128 0.0 0.0 0.00 0.02 0.02 61 1012.3
20260905033017 59 128 0.0 0.0 0.00 0.02 0.02 60 1012.1
20260905031516 59 129 0.0 0.0 0.00 0.02 0.02 60 1012.0
20260905024519 60 23 0.0 0.0 0.00 0.02 0.02 57 1011.8
20260905023020 60 23 0.0 0.0 0.00 0.02 0.02 55 1011.7
20260905021516 60 23 0.0 0.0 0.00 0.02 0.02 55 1011.6
20260905014511 63 23 0.0 1.0 0.00 0.02 0.02 52 1011.7
20260905013012 64 22 0.0 1.0 0.00 0.02 0.02 48 1011.5
20260905011513 65 358 0.0 2.0 0.00 0.02 0.02 48 1011.4
20260905004512 66 111 0.0 2.0 0.00 0.02 0.02 44 1011.3
20260905003011 67 300 0.0 3.0 0.00 0.02 0.02 42 1011.4
20260905001511 68 184 0.0 2.0 0.00 0.02 0.02 42 1011.2
20260904234507 70 332 1.0 3.0 0.00 0.02 0.02 42 1011.1
20260904233009 71 10 1.0 4.0 0.00 0.02 0.02 40 1011.1
20260904231507 71 89 0.0 4.0 0.00 0.02 0.02 41 1011.1
20260904224509 74 294 1.0 3.0 0.00 0.02 0.02 42 1011.1
20260904223007 74 309 1.0 4.0 0.00 0.02 0.02 41 1011.2
20260904221506 74 13 0.0 3.0 0.00 0.02 0.02 46 1011.1
20260904214508 73 325 0.0 2.0 0.00 0.02 0.02 52 1011.1
20260904213059 72 320 1.0 3.0 0.00 0.02 0.02 58 1011.1
20260904211555 70 6 0.0 3.0 0.00 0.02 0.02 61 1011.3
20260904204551 67 342 0.0 1.0 0.00 0.02 0.02 71 1011.3
20260904203046 64 340 0.0 1.0 0.00 0.02 0.02 78 1011.3
20260904201542 63 349 0.0 2.0 0.00 0.02 0.02 82 1011.3
20260904194541 61 339 0.0 3.0 0.00 0.02 0.02 87 1011.4
20260904193039 60 5 0.0 3.0 0.00 0.02 0.02 90 1011.5
20260904191536 59 349 0.0 1.0 0.00 0.02 0.02 90 1011.6
20260904184529 58 12 0.0 1.0 0.00 0.02 0.02 94 1011.7
20260904183029 57 11 0.0 1.0 0.01 0.02 0.02 95 1011.8
20260904181527 56 13 0.0 1.0 0.01 0.02 0.02 95 1011.7
20260904174528 56 11 0.0 1.0 0.01 0.02 0.02 95 1011.7
20260904173026 56 347 0.0 0.0 0.02 0.02 0.02 95 1011.6
20260904171523 55 347 0.0 2.0 0.01 0.01 0.01 95 1011.3
20260904164521 55 13 0.0 1.0 0.01 0.01 0.01 95 1011.0
20260904163021 55 13 0.0 0.0 0.00 0.00 0.00 95 1010.8
20260904161518 55 13 0.0 0.0 0.00 0.00 0.00 95 1010.7
20260904154518 54 13 0.0 1.0 0.00 0.00 0.00 94 1010.7
20260904153018 54 13 0.0 0.0 0.00 0.00 0.00 94 1010.6
20260904151518 54 13 0.0 0.0 0.00 0.00 0.00 94 1010.7
20260904144515 55 6 0.0 1.0 0.00 0.00 0.00 93 1010.5
20260904143013 56 11 0.0 0.0 0.00 0.00 0.00 93 1010.4
20260904141511 56 11 0.0 0.0 0.00 0.00 0.00 93 1010.2
20260904134511 56 11 0.0 0.0 0.00 0.00 0.00 92 1009.9
20260904133003 57 12 0.0 0.0 0.00 0.00 0.00 92 1009.8
20260904131503 57 12 0.0 0.0 0.00 0.00 0.00 90 1009.8